When you browse on this site, cookies collect data to enhance your experience and personalize the content and advertising you see.
Visit our Privacy Policy to learn more. By continuing to use the site, you agree to this use of cookies and data.
  • în România
  • Lista ţărilor
  • Pe 7 zile
  • Temperatura apei
  • Hartă satelitară
  • Meteo pe hartă
  • Widget-uri
  • user-avatar
    Intrare

    Meteo pe oră la Nasirijja

    Astăzi, 21 Noiembrie, Miercuri

    Timp Temperatura Precipitaţii Vânt Presiune Umiditate
    00:00 +19°C° 0 mm 3 m/s 764 mmHg 47%
    01:00 +19°C° 0 mm 3 m/s 764 mmHg 48%
    02:00 +19°C° 0 mm 3 m/s 764 mmHg 49%
    03:00 +18°C° 0 mm 3 m/s 763 mmHg 50%
    04:00 +18°C° 0 mm 3 m/s 764 mmHg 50%
    05:00 +18°C° 0 mm 3 m/s 764 mmHg 50%
    06:00 +18°C° 0 mm 3 m/s 764 mmHg 50%
    07:00 +19°C° 0 mm 3 m/s 764 mmHg 46%
    08:00 +20°C° 0 mm 4 m/s 764 mmHg 42%
    09:00 +21°C° 0 mm 4 m/s 764 mmHg 38%
    10:00 +22°C° 0 mm 4 m/s 764 mmHg 35%
    11:00 +23°C° 0 mm 4 m/s 764 mmHg 31%
    12:00 +26°C° 0 mm 4 m/s 764 mmHg 28%
    13:00 +26°C° 0 mm 4 m/s 763 mmHg 27%
    14:00 +26°C° 0 mm 3 m/s 763 mmHg 26%
    15:00 +27°C° 0 mm 3 m/s 762 mmHg 25%
    16:00 +26°C° 0 mm 2 m/s 762 mmHg 27%
    17:00 +25°C° 0 mm 2 m/s 762 mmHg 29%
    18:00 +24°C° 0 mm 1 m/s 762 mmHg 32%
    19:00 +23°C° 0 mm 1 m/s 762 mmHg 32%
    20:00 +23°C° 0 mm 1 m/s 763 mmHg 33%
    21:00 +23°C° 0 mm 1 m/s 763 mmHg 34%
    22:00 +22°C° 0 mm 1 m/s 763 mmHg 34%
    23:00 +22°C° 0 mm 1 m/s 762 mmHg 34%

    Mâine, 22 Noiembrie, Joi

    Timp Temperatura Precipitaţii Vânt Presiune Umiditate
    00:00 +21°C° 0 mm 2 m/s 762 mmHg 34%
    01:00 +21°C° 0 mm 2 m/s 762 mmHg 35%
    02:00 +20°C° 0 mm 2 m/s 762 mmHg 35%
    03:00 +20°C° 0 mm 2 m/s 762 mmHg 36%
    04:00 +20°C° 0 mm 2 m/s 762 mmHg 36%
    05:00 +20°C° 0 mm 2 m/s 762 mmHg 36%
    06:00 +20°C° 0 mm 2 m/s 762 mmHg 36%
    07:00 +21°C° 0 mm 2 m/s 762 mmHg 35%
    08:00 +22°C° 0 mm 3 m/s 762 mmHg 33%
    09:00 +22°C° 0 mm 3 m/s 763 mmHg 31%
    10:00 +25°C° 0 mm 3 m/s 762 mmHg 29%
    11:00 +26°C° 0 mm 4 m/s 762 mmHg 26%
    12:00 +27°C° 0 mm 4 m/s 762 mmHg 24%
    13:00 +27°C° 0 mm 4 m/s 761 mmHg 23%
    14:00 +27°C° 0 mm 4 m/s 760 mmHg 23%
    15:00 +27°C° 0 mm 4 m/s 760 mmHg 22%
    16:00 +26°C° 0 mm 4 m/s 760 mmHg 24%
    17:00 +26°C° 0 mm 4 m/s 760 mmHg 26%
    18:00 +25°C° 0 mm 3 m/s 760 mmHg 28%
    19:00 +25°C° 0 mm 4 m/s 760 mmHg 29%
    20:00 +23°C° 0 mm 4 m/s 760 mmHg 30%
    21:00 +23°C° 0 mm 4 m/s 760 mmHg 32%
    22:00 +23°C° 0 mm 4 m/s 760 mmHg 33%
    23:00 +23°C° 0 mm 5 m/s 760 mmHg 34%

    Poimâine, 23 Noiembrie, Vineri

    Timp Temperatura Precipitaţii Vânt Presiune Umiditate
    00:00 +22°C° 0 mm 5 m/s 760 mmHg 35%
    01:00 +22°C° 0.1 mm 5 m/s 760 mmHg 38%
    02:00 +22°C° 0.1 mm 5 m/s 760 mmHg 42%
    03:00 +21°C° 0.1 mm 5 m/s 760 mmHg 45%
    04:00 +21°C° 0.6 mm 5 m/s 760 mmHg 51%
    05:00 +20°C° 0.6 mm 5 m/s 760 mmHg 58%
    06:00 +19°C° 0.6 mm 5 m/s 760 mmHg 64%
    07:00 +19°C° 1.4 mm 5 m/s 760 mmHg 69%
    08:00 +19°C° 1.4 mm 6 m/s 761 mmHg 73%
    09:00 +17°C° 1.4 mm 6 m/s 761 mmHg 77%
    10:00 +17°C° 2.2 mm 6 m/s 761 mmHg 80%
    11:00 +17°C° 2.2 mm 6 m/s 760 mmHg 82%
    12:00 +17°C° 2.2 mm 5 m/s 760 mmHg 85%
    13:00 +17°C° 1 mm 5 m/s 759 mmHg 85%
    14:00 +17°C° 1 mm 5 m/s 759 mmHg 84%
    15:00 +19°C° 1 mm 5 m/s 759 mmHg 84%
    16:00 +19°C° 0.5 mm 4 m/s 759 mmHg 84%
    17:00 +19°C° 0.5 mm 4 m/s 759 mmHg 83%
    18:00 +19°C° 0.5 mm 4 m/s 759 mmHg 83%
    19:00 +18°C° 0.1 mm 3 m/s 759 mmHg 84%
    20:00 +18°C° 0.1 mm 3 m/s 759 mmHg 84%
    21:00 +18°C° 0.1 mm 3 m/s 759 mmHg 85%
    22:00 +18°C° 0 mm 3 m/s 760 mmHg 85%
    23:00 +18°C° 0 mm 3 m/s 760 mmHg 86%

    24 Noiembrie, Sâmbătă

    Timp Temperatura Precipitaţii Vânt Presiune Umiditate
    00:00 +18°C° 0 mm 3 m/s 760 mmHg 86%
    01:00 +18°C° 0.3 mm 3 m/s 760 mmHg 87%
    02:00 +18°C° 0.3 mm 2 m/s 760 mmHg 87%
    03:00 +18°C° 0.3 mm 2 m/s 760 mmHg 88%
    04:00 +18°C° 0.6 mm 2 m/s 760 mmHg 87%
    05:00 +18°C° 0.6 mm 2 m/s 760 mmHg 87%
    06:00 +18°C° 0.6 mm 3 m/s 760 mmHg 86%
    07:00 +18°C° 0 mm 3 m/s 761 mmHg 82%
    08:00 +19°C° 0 mm 4 m/s 761 mmHg 77%
    09:00 +20°C° 0 mm 5 m/s 762 mmHg 73%
    10:00 +21°C° 0 mm 4 m/s 761 mmHg 69%
    11:00 +22°C° 0 mm 4 m/s 761 mmHg 65%
    12:00 +23°C° 0 mm 4 m/s 760 mmHg 61%
    13:00 +23°C° 0 mm 4 m/s 760 mmHg 60%
    14:00 +25°C° 0 mm 4 m/s 760 mmHg 58%
    15:00 +25°C° 0 mm 4 m/s 759 mmHg 57%
    16:00 +25°C° 0.1 mm 3 m/s 759 mmHg 60%
    17:00 +24°C° 0.1 mm 3 m/s 759 mmHg 62%
    18:00 +24°C° 0.1 mm 3 m/s 759 mmHg 65%
    19:00 +24°C° 0.1 mm 3 m/s 760 mmHg 65%
    20:00 +22°C° 0.1 mm 4 m/s 760 mmHg 66%
    21:00 +22°C° 0.1 mm 4 m/s 760 mmHg 66%
    22:00 +21°C° 1 mm 4 m/s 760 mmHg 69%
    23:00 +21°C° 1 mm 4 m/s 760 mmHg 71%

    25 Noiembrie, Duminică

    Timp Temperatura Precipitaţii Vânt Presiune Umiditate
    00:00 +20°C° 1 mm 4 m/s 760 mmHg 74%
    01:00 +20°C° 0.2 mm 3 m/s 760 mmHg 75%
    02:00 +19°C° 0.2 mm 3 m/s 760 mmHg 77%
    03:00 +19°C° 0.2 mm 2 m/s 759 mmHg 78%
    04:00 +19°C° 0 mm 2 m/s 760 mmHg 78%
    05:00 +19°C° 0 mm 2 m/s 760 mmHg 79%
    06:00 +19°C° 0 mm 2 m/s 760 mmHg 79%
    07:00 +19°C° 0 mm 3 m/s 761 mmHg 75%
    08:00 +20°C° 0 mm 3 m/s 761 mmHg 71%
    09:00 +20°C° 0 mm 3 m/s 762 mmHg 67%
    10:00 +21°C° 0 mm 3 m/s 761 mmHg 62%
    11:00 +22°C° 0 mm 3 m/s 761 mmHg 56%
    12:00 +23°C° 0 mm 4 m/s 761 mmHg 50%
    13:00 +23°C° 0 mm 4 m/s 761 mmHg 48%
    14:00 +25°C° 0 mm 4 m/s 760 mmHg 45%
    15:00 +25°C° 0 mm 4 m/s 760 mmHg 43%
    16:00 +24°C° 0 mm 3 m/s 760 mmHg 45%
    17:00 +24°C° 0 mm 3 m/s 761 mmHg 48%
    18:00 +23°C° 0 mm 2 m/s 761 mmHg 50%
    19:00 +23°C° 0 mm 2 m/s 762 mmHg 52%
    20:00 +21°C° 0 mm 2 m/s 762 mmHg 53%
    21:00 +21°C° 0 mm 2 m/s 762 mmHg 55%
    22:00 +20°C° 0 mm 3 m/s 762 mmHg 57%
    23:00 +20°C° 0 mm 3 m/s 762 mmHg 59%

    26 Noiembrie, Luni

    Timp Temperatura Precipitaţii Vânt Presiune Umiditate
    00:00 +20°C° 0 mm 3 m/s 762 mmHg 61%
    01:00 +19°C° 0 mm 3 m/s 762 mmHg 64%
    02:00 +19°C° 0 mm 3 m/s 762 mmHg 66%
    03:00 +18°C° 0 mm 2 m/s 762 mmHg 69%
    04:00 +18°C° 0 mm 2 m/s 762 mmHg 70%
    05:00 +18°C° 0 mm 2 m/s 762 mmHg 72%
    06:00 +17°C° 0 mm 2 m/s 762 mmHg 74%
    07:00 +18°C° 0 mm 2 m/s 763 mmHg 70%
    08:00 +19°C° 0 mm 2 m/s 763 mmHg 66%
    09:00 +21°C° 0 mm 1 m/s 764 mmHg 62%
    10:00 +20°C° 0 mm 2 m/s 763 mmHg 58%
    11:00 +21°C° 0 mm 2 m/s 763 mmHg 53%
    12:00 +22°C° 0 mm 3 m/s 763 mmHg 48%
    13:00 +24°C° 0 mm 3 m/s 763 mmHg 46%
    14:00 +23°C° 0 mm 4 m/s 762 mmHg 44%
    15:00 +23°C° 0 mm 4 m/s 762 mmHg 42%
    16:00 +24°C° 0 mm 3 m/s 762 mmHg 44%
    17:00 +22°C° 0 mm 3 m/s 763 mmHg 47%
    18:00 +21°C° 0 mm 2 m/s 763 mmHg 49%
    19:00 +21°C° 0 mm 2 m/s 763 mmHg 51%
    20:00 +21°C° 0 mm 2 m/s 763 mmHg 52%
    21:00 +20°C° 0 mm 2 m/s 763 mmHg 54%
    22:00 +21°C° 0 mm 1 m/s 764 mmHg 56%
    23:00 +20°C° 0 mm 1 m/s 764 mmHg 57%
    Arată mai mult